Погода в Кирсанове

Погода в Кирсанове : погода сейчас, прогноз погоды и архив. Всё, что Вы хотите узнать о погоде в Кирсанове!

Хотите узнать прогноз погоды в Кирсанове? Тогда Вам сюда: Погода в Кирсанове

Поиск расширенной информации на нашем сайте:

Другие новости

Новости СМИ2

Главная страница сайта

Новости сайта

03.07.2017

Напоминаем, что на нашем специализированном сайте Метеоцентр.Азия вы можете получить высокодетализированные автоматические прогнозы погоды по пунктам России, СНГ и мира в авиационном формате (включающие направление и скорость ветра, видимость, явления погоды, количество и форму облачности, нижнюю и верхнюю границу облачности).


Погода в Кирсанове - сегодня

Время (UTC), дата Ветер
(°,м/с) 
Видим.   Явления Облачность Т
(°С)
Тd
(°С)
f(%) Тe
(°С)
Pmin
(гПа)
dP
(гПа)
Po
(мм)
O2
(г/м3)
Тmin Tmax R s Состояние
почвы
06 15.08.17 190 (Ю) 10 км    3/0 верхняя 
[Ci sp]
+21.7 +12.3 55 +26  1017.8  0.2  749  277           
09 15.08.17 060 (СВ) 10 км    8/0 средняя, верхняя 
[Ac trans|Ci sp]
+27.5 +11.5 37 +31  1017.3  -0.1  749  272           
12 15.08.17 310 (СЗ) 10 км    8/6 600 м кучево-дожд., средняя, верхняя 
[Cb calv|Ac trans|Ci sp]
+27.7 +12.7 40 +33  1017.4  0.1  749  271           
15 15.08.17 010 (С) 10 км  {гроза}  8/6 600 м кучево-дожд., средняя 
[Cb calv|Ac trans]
+26.5 +13.4 44 +33  1018.1  0.6  749  273    +29.3       
18 15.08.17 010 (С) 10 км  {гроза}  4/0 средняя 
[Ac trans]
+21.1 +15.1 69 +30  1019.9  1.4  750  277           
21 15.08.17 020 (С) 10 км    3/0 средняя 
[Ac trans]
+19.4 +15.9 80 +30  1020.5  0.6  751  279           
00 16.08.17 020 (С) 10 км    6/4 600 м кучево-дожд., средняя 
[Cb calv|Ac trans]
+17.6 +15.2 86 +27  1021.1  0.4  751  281           
03 16.08.17 060 (СВ) 10 км    6/6 600 м кучево-дожд. 
[Cb calv]
+17.2 +15.1 87 +27  1022.1  0.9  752  282  +16.8         
06 16.08.17 080 (В) 10 км    6/6 1000 м 
[Cu med, cong]
+20.7 +15.5 72 +30  1023.1  1.1  752  279           
09 16.08.17 080 (В) 10 км    4/0 верхняя 
[Ci sp]
+25.3 +14.4 51 +33  1022.6  752  275           
12 16.08.17 030 (СВ) 10 км    6/6 1000 м 
[Cu med, cong]
+26.5 +13.2 44 +32  1022.4  -0.2  752  274           
15 16.08.17 080 (В) 10 км    6/6 600 м кучево-дожд. 
[Cb calv]
+25 +14.2 51 +32  1022.5  752  275    +27.5       
18 16.08.17 060 (СВ) 10 км    3/0 средняя 
[Ac trans]
+20.4 +14.8 70 +29  1023.7  0.9  753  279           
21 16.08.17 060 (СВ) 10 км    ясно 
+17.8 +14.3 80 +26  1024  0.2  753  282           
00 17.08.17 050 (СВ) 10 км    ясно 
+15.8 +13.6 87 +23  1024.6  0.4  753  284           
03 17.08.17 060 (СВ) 10 км    3/0 средняя 
[Ac trans]
+15.6 +13.2 86 +23  1025  0.4  754  285  +14.7         
06 17.08.17 070 (В) 10 км    ясно 
+21.6 +14 62 +28  1024.1  -0.5  753  278           
09 17.08.17 100 (В) 10 км    3/3 1000 м 
[Cu med, cong]
+26.4 +10.9 38 +29  1023.6  -0.2  753  275           
12 17.08.17 100 (В) 10 км    3/3 1000 м 
[Cu med, cong]
+28.4 +9.7 31 +29  1022.6  -0.9  752  273           
15 17.08.17 090 (В) 10 км    ясно 
+26.7 +10.5 36 +28  1022.2  -0.5  752  274    +28.8       
18 17.08.17 070 (В) 10 км    ясно 
+20.2 +12 59 +24  1022.8  0.2  752  280           
21 17.08.17 360 (С) 10 км    ясно 
+17.2 +11.3 68 +21  1023.4  0.3  752  283           
00 18.08.17 060 (СВ) 10 км    ясно 
+14.9 +10.7 76 +18  1023.7  0.2  753  286           
03 18.08.17 050 (СВ) 10 км    ясно 
+14.6 +10.6 77 +18  1024  0.3  753  286  +12.9         
06 18.08.17 140 (ЮВ) 10 км    ясно 
+22.8 +10.7 46 +25  1024  0.5  753  278           
Время (UTC), дата Ветер
(°,м/с) 
Видим.   Явления Облачность Т
(°С)
Тd
(°С)
f(%) Тe
(°С)
Pmin
(гПа)
dP
(гПа)
Po
(мм)
O2
(г/м3)
Тmin Tmax R s Состояние
почвы

Для получения пояснительной информации подведите курсор к названию столбца.

ПОГОДА в Кирсанове - архив

Всё, что Вы хотите узнать о погоде в Кирсанове - удобно и подробно!

Выберите нужную дату (начиная с 1 января 2015* года) и нажмите кнопку "Найти".
Будут отображены архивные сводки погоды по пункту Кирсанов, начиная с указанной даты.


Отображать данные в формате CSV (для использования в таблицах Excel)


Внимание! Наш архив погоды предназначен исключительно для личного некоммерческого использования в познавательных целях. Если Вам необходимы официальные справки о состоянии погоды (для производственных, юридических, коммерческих и т.п. целей), обращайтесь в органы Росгидромета.

*Примечание: данная дата относится к архиву по метеостанциям СССР (Россия, СНГ, Балтия).
Архив по метеостанциям Зарубежной Европы и Азии (кроме Китая) хранится 10 дней, по другим регионам земного шара (Китай, Африка, Америка, Австралия, Океания) - 1 день.

Кирсанов - район местоположения метеостанции


Название, широта, долгота, высота метеостанции:
Кирсанов 52.7°ш. 42.7°д. 169 м над ур. моря [Российская Федерация]

Дополнительная информация

В oтличие oт бoльшинства пoгoдных сайтoв мы публикуем пoдрoбную метеoинфoрмацию в детальнoм прoфессиoнальнoм фoрмате.

Характеристики температуры и влажнoсти вoздуха измеряются на высoте 2 м в тени вдали oт зданий и деревьев.
Скoрoсть ветра измеряется на высoте 10 м (на урoвне рoста челoвека скoрoсть ветра ниже в 1.5-2 раза). Если метеoстанция нахoдится в гoрoде или в лесу, тo скoрoсть ветра занижена на 2-4 м/с пo сравнению с oткрытым местoм. Скoрoсть ветра над акватoриями крупных рек и oзёр, а также на вершинах хoлмoв на 2-5 м/с выше, чем в oбычных услoвиях.
Атмoсфернoе давление в разных тoчках местнoсти мoжет значительнo oтличаться oт давления на метеoстанции, в зависимoсти oт услoвий рельефа (при пoдъёме на 10 м давление пoнижается примернo на 1 мм рт.ст.).